When you browse on this site, cookies collect data to enhance your experience and personalize the content and advertising you see.
Visit our Privacy Policy to learn more. By continuing to use the site, you agree to this use of cookies and data.
  • In Denmark
  • List of Countries
  • For 7 days
  • Water Temperature
  • Satellite Maps
  • Weather Map
  • Weather Widgets
  • user-avatar
    Login

    Hourly Weather Maan

    Today, 25 April, Thursday

    Time Temperature Precipitation Wind Pressure Humidity
    00:00 +14°C° 0 mm 3 mps 640 mmHg 20%
    01:00 +15°C° 0 mm 2 mps 640 mmHg 20%
    02:00 +14°C° 0 mm 2 mps 639 mmHg 21%
    03:00 +14°C° 0 mm 2 mps 639 mmHg 21%
    04:00 +13°C° 0 mm 2 mps 639 mmHg 21%
    05:00 +13°C° 0 mm 2 mps 639 mmHg 21%
    06:00 +14°C° 0 mm 2 mps 640 mmHg 20%
    07:00 +16°C° 0 mm 2 mps 640 mmHg 18%
    08:00 +17°C° 0 mm 2 mps 641 mmHg 16%
    09:00 +18°C° 0 mm 2 mps 641 mmHg 15%
    10:00 +19°C° 0 mm 2 mps 641 mmHg 14%
    11:00 +20°C° 0 mm 2 mps 641 mmHg 13%
    12:00 +21°C° 0 mm 3 mps 641 mmHg 12%
    13:00 +22°C° 0 mm 3 mps 641 mmHg 12%
    14:00 +22°C° 0 mm 4 mps 641 mmHg 12%
    15:00 +22°C° 0 mm 4 mps 640 mmHg 12%
    16:00 +22°C° 0 mm 4 mps 640 mmHg 13%
    17:00 +21°C° 0 mm 4 mps 640 mmHg 14%
    18:00 +20°C° 0 mm 4 mps 640 mmHg 15%
    19:00 +19°C° 0 mm 3 mps 639 mmHg 17%
    20:00 +18°C° 0 mm 3 mps 639 mmHg 18%
    21:00 +17°C° 0 mm 3 mps 639 mmHg 19%
    22:00 +17°C° 0 mm 3 mps 639 mmHg 20%
    23:00 +16°C° 0 mm 3 mps 639 mmHg 20%

    Tomorrow, 26 April, Friday

    Time Temperature Precipitation Wind Pressure Humidity
    00:00 +16°C° 0 mm 3 mps 639 mmHg 22%
    01:00 +14°C° 0 mm 3 mps 638 mmHg 23%
    02:00 +14°C° 0 mm 2 mps 638 mmHg 24%
    03:00 +14°C° 0 mm 2 mps 638 mmHg 25%
    04:00 +13°C° 0 mm 3 mps 638 mmHg 26%
    05:00 +12°C° 0 mm 3 mps 637 mmHg 28%
    06:00 +13°C° 0 mm 3 mps 638 mmHg 25%
    07:00 +16°C° 0 mm 3 mps 638 mmHg 23%
    08:00 +17°C° 0 mm 4 mps 639 mmHg 21%
    09:00 +18°C° 0 mm 3 mps 639 mmHg 19%
    10:00 +20°C° 0 mm 3 mps 639 mmHg 17%
    11:00 +21°C° 0 mm 2 mps 639 mmHg 14%
    12:00 +21°C° 0 mm 3 mps 639 mmHg 14%
    13:00 +22°C° 0 mm 3 mps 638 mmHg 14%
    14:00 +24°C° 0 mm 3 mps 638 mmHg 13%
    15:00 +22°C° 0 mm 3 mps 638 mmHg 14%
    16:00 +22°C° 0 mm 4 mps 637 mmHg 15%
    17:00 +21°C° 0 mm 4 mps 637 mmHg 15%
    18:00 +20°C° 0 mm 4 mps 637 mmHg 17%
    19:00 +20°C° 0 mm 4 mps 637 mmHg 19%
    20:00 +19°C° 0 mm 4 mps 637 mmHg 21%
    21:00 +18°C° 0 mm 4 mps 637 mmHg 22%
    22:00 +17°C° 0 mm 3 mps 637 mmHg 24%
    23:00 +17°C° 0 mm 3 mps 637 mmHg 25%

    Day after tomorrow, 27 April, Saturday

    Time Temperature Precipitation Wind Pressure Humidity
    00:00 +16°C° 0 mm 3 mps 637 mmHg 25%
    01:00 +16°C° 0 mm 3 mps 636 mmHg 25%
    02:00 +14°C° 0 mm 3 mps 636 mmHg 24%
    03:00 +14°C° 0 mm 3 mps 636 mmHg 25%
    04:00 +14°C° 0 mm 4 mps 635 mmHg 26%
    05:00 +13°C° 0 mm 4 mps 635 mmHg 27%
    06:00 +15°C° 0 mm 4 mps 636 mmHg 24%
    07:00 +17°C° 0 mm 4 mps 636 mmHg 21%
    08:00 +19°C° 0 mm 4 mps 637 mmHg 18%
    09:00 +20°C° 0 mm 4 mps 637 mmHg 17%
    10:00 +21°C° 0 mm 3 mps 638 mmHg 16%
    11:00 +22°C° 0 mm 3 mps 638 mmHg 15%
    12:00 +24°C° 0 mm 3 mps 638 mmHg 15%
    13:00 +23°C° 0 mm 4 mps 637 mmHg 15%
    14:00 +25°C° 0 mm 4 mps 637 mmHg 14%
    15:00 +23°C° 0 mm 5 mps 637 mmHg 16%
    16:00 +22°C° 0 mm 6 mps 636 mmHg 17%
    17:00 +22°C° 0 mm 7 mps 636 mmHg 19%
    18:00 +20°C° 0 mm 6 mps 636 mmHg 23%
    19:00 +19°C° 0 mm 5 mps 636 mmHg 28%
    20:00 +17°C° 0 mm 4 mps 636 mmHg 33%
    21:00 +17°C° 0 mm 4 mps 636 mmHg 34%
    22:00 +16°C° 0 mm 3 mps 636 mmHg 35%
    23:00 +16°C° 0 mm 2 mps 636 mmHg 37%

    28 April, Sunday

    Time Temperature Precipitation Wind Pressure Humidity
    00:00 +15°C° 0 mm 2 mps 636 mmHg 37%
    01:00 +14°C° 0 mm 2 mps 636 mmHg 37%
    02:00 +14°C° 0 mm 1 mps 635 mmHg 38%
    03:00 +14°C° 0 mm 1 mps 635 mmHg 38%
    04:00 +13°C° 0 mm 1 mps 635 mmHg 39%
    05:00 +13°C° 0 mm 1 mps 635 mmHg 39%
    06:00 +14°C° 0 mm 1 mps 636 mmHg 35%
    07:00 +16°C° 0 mm 1 mps 637 mmHg 31%
    08:00 +18°C° 0 mm 1 mps 637 mmHg 27%
    09:00 +20°C° 0 mm 1 mps 638 mmHg 25%
    10:00 +21°C° 0 mm 1 mps 638 mmHg 24%
    11:00 +23°C° 0 mm 1 mps 638 mmHg 22%
    12:00 +23°C° 0 mm 2 mps 638 mmHg 20%
    13:00 +24°C° 0 mm 3 mps 638 mmHg 19%
    14:00 +25°C° 0 mm 4 mps 638 mmHg 17%
    15:00 +25°C° 0 mm 4 mps 638 mmHg 17%
    16:00 +23°C° 0 mm 4 mps 637 mmHg 17%
    17:00 +23°C° 0 mm 4 mps 637 mmHg 17%
    18:00 +22°C° 0 mm 4 mps 637 mmHg 17%
    19:00 +21°C° 0 mm 3 mps 637 mmHg 18%
    20:00 +20°C° 0 mm 3 mps 637 mmHg 19%
    21:00 +19°C° 0 mm 2 mps 637 mmHg 21%
    22:00 +18°C° 0 mm 2 mps 637 mmHg 22%
    23:00 +18°C° 0 mm 1 mps 637 mmHg 24%

    29 April, Monday

    Time Temperature Precipitation Wind Pressure Humidity
    00:00 +18°C° 0 mm 1 mps 637 mmHg 26%
    01:00 +16°C° 0 mm 1 mps 636 mmHg 27%
    02:00 +16°C° 0 mm 1 mps 636 mmHg 29%
    03:00 +15°C° 0 mm 1 mps 636 mmHg 28%
    04:00 +14°C° 0 mm 1 mps 635 mmHg 28%
    05:00 +14°C° 0 mm 1 mps 635 mmHg 27%
    06:00 +16°C° 0 mm 1 mps 636 mmHg 22%
    07:00 +17°C° 0 mm 0 mps 637 mmHg 17%
    08:00 +19°C° 0 mm 0 mps 638 mmHg 12%
    09:00 +22°C° 0 mm 1 mps 638 mmHg 12%
    10:00 +24°C° 0 mm 1 mps 639 mmHg 11%
    11:00 +25°C° 0 mm 1 mps 639 mmHg 10%
    12:00 +26°C° 0 mm 2 mps 639 mmHg 10%
    13:00 +26°C° 0 mm 4 mps 638 mmHg 10%
    14:00 +27°C° 0 mm 5 mps 638 mmHg 9%
    15:00 +27°C° 0 mm 5 mps 638 mmHg 10%
    16:00 +26°C° 0 mm 6 mps 638 mmHg 10%
    17:00 +24°C° 0 mm 6 mps 638 mmHg 11%
    18:00 +23°C° 0 mm 6 mps 638 mmHg 15%
    19:00 +21°C° 0 mm 6 mps 638 mmHg 19%
    20:00 +20°C° 0 mm 5 mps 637 mmHg 23%
    21:00 +19°C° 0 mm 5 mps 637 mmHg 24%
    22:00 +19°C° 0 mm 4 mps 637 mmHg 25%
    23:00 +18°C° 0 mm 3 mps 637 mmHg 26%

    30 April, Tuesday

    Time Temperature Precipitation Wind Pressure Humidity
    00:00 +17°C° 0 mm 3 mps 637 mmHg 25%
    01:00 +17°C° 0 mm 3 mps 637 mmHg 25%
    02:00 +16°C° 0 mm 3 mps 636 mmHg 24%
    03:00 +16°C° 0 mm 3 mps 636 mmHg 25%
    04:00 +14°C° 0 mm 3 mps 636 mmHg 25%
    05:00 +14°C° 0 mm 3 mps 636 mmHg 26%
    06:00 +16°C° 0 mm 3 mps 637 mmHg 23%
    07:00 +17°C° 0 mm 3 mps 637 mmHg 20%
    08:00 +18°C° 0 mm 3 mps 638 mmHg 17%
    09:00 +19°C° 0 mm 3 mps 638 mmHg 14%
    10:00 +20°C° 0 mm 4 mps 638 mmHg 12%
    11:00 +21°C° 0 mm 4 mps 638 mmHg 9%
    12:00 +21°C° 0 mm 4 mps 638 mmHg 9%
    13:00 +21°C° 0 mm 5 mps 637 mmHg 8%
    14:00 +22°C° 0 mm 5 mps 637 mmHg 8%
    15:00 +21°C° 0 mm 5 mps 637 mmHg 8%
    16:00 +21°C° 0 mm 5 mps 637 mmHg 8%
    17:00 +21°C° 0 mm 5 mps 637 mmHg 8%
    18:00 +20°C° 0 mm 4 mps 637 mmHg 10%
    19:00 +19°C° 0 mm 4 mps 637 mmHg 11%
    20:00 +17°C° 0 mm 3 mps 637 mmHg 13%
    21:00 +17°C° 0 mm 3 mps 637 mmHg 15%
    22:00 +16°C° 0 mm 3 mps 637 mmHg 16%
    23:00 +14°C° 0 mm 3 mps 636 mmHg 17%
    Show more